Weather History for Honolulu, HI

Change the Weather History Date:

Wednesday, July 3, 2013

  Actual Average Record
Temperature  
Mean Temperature 79 °F 81 °F  
Max Temperature 85 °F 88 °F 90 °F (1979)
Min Temperature 73 °F 74 °F 68 °F (1958)
Degree Days  
Heating Degree Days 0 0  
Month to date heating degree days 0 0  
Since 1 June heating degree days 0 0  
Since 1 July heating degree days 0 0  
Cooling Degree Days 14 16  
Month to date cooling degree days 40 48  
Year to date cooling degree days 1909 2006  
Since 1 June cooling degree days 449 504  
Growing Degree Days 28 (Base 50)    
Moisture  
Dew Point 64 °F    
Average Humidity 61    
Maximum Humidity 73    
Minimum Humidity 48    
Precipitation  
Precipitation T in 0.01 in 0.07 in (1982)
Month to date precipitation 0.02 0.03  
Year to date precipitation 8.65 7.86  
Snow  
Snow 0.00 in - - ()
Month to date snowfall 0.0  
Since 1 June snowfall 0.0  
Since 1 July snowfall 0.0  
Snow Depth 0.00 in    
Sea Level Pressure  
Sea Level Pressure 29.98 in    
Wind  
Wind Speed 10 mph (NE)    
Max Wind Speed 21 mph    
Max Gust Speed 26 mph    
Visibility 10 miles    
Events      
T = Trace of Precipitation, MM = Missing Value Source: NWS Daily Summary

Daily Weather History Graph

Daily Weather History Graph

Search for Another Location

Airport:

Trip Planner

Search our weather history database for the weather conditions in past years. The results will help you decide how hot, cold, wet, or windy it might be!

Date:

Astronomy

Jul. 03, 2013 Rise Set
Actual Time 5:54 AM HST 7:17 PM HST
Civil Twilight 5:29 AM HST 7:42 PM HST
Nautical Twilight 4:59 AM HST 8:12 PM HST
Astronomical Twilight 4:29 AM HST 8:42 PM HST
Moon 2:26 AM HST (7/3) 3:48 PM HST (7/3)
Length of Visible Light 14h 13m
Length of Day
13h 23m
Waning Crescent, 16% of the Moon is Illuminated
Jul 3
Waning Crescent
Jul 7
New
Jul 15
First Quarter
Jul 22
Full
Jul 29
Last Quarter

Hourly Weather History & Observations

Time (HST) Temp. Heat Index Dew Point Humidity Pressure Visibility Wind Dir Wind Speed Gust Speed Precip Events Conditions
12:53 AM 73.0 °F - 64.0 °F 73% 29.96 in 10.0 mi NE 5.8 mph - N/A   Partly Cloudy
1:53 AM 73.9 °F - 64.9 °F 73% 29.95 in 10.0 mi Calm Calm - N/A   Partly Cloudy
2:53 AM 73.9 °F - 64.9 °F 73% 29.94 in 10.0 mi East 8.1 mph - N/A   Partly Cloudy
3:53 AM 73.9 °F - 64.9 °F 73% 29.94 in 10.0 mi NE 11.5 mph - N/A   Scattered Clouds
4:53 AM 73.9 °F - 64.9 °F 73% 29.95 in 10.0 mi ENE 9.2 mph - N/A   Partly Cloudy
5:53 AM 73.9 °F - 64.9 °F 73% 29.97 in 10.0 mi NE 8.1 mph - N/A   Mostly Cloudy
6:53 AM 75.0 °F - 64.9 °F 71% 29.98 in 10.0 mi NE 4.6 mph - N/A   Mostly Cloudy
7:53 AM 77.0 °F - 64.9 °F 66% 29.99 in 10.0 mi NE 9.2 mph - N/A   Mostly Cloudy
8:53 AM 78.1 °F - 64.9 °F 64% 30.01 in 10.0 mi ENE 4.6 mph - N/A   Mostly Cloudy
9:53 AM 81.0 °F 82.7 °F 64.9 °F 58% 30.01 in 10.0 mi ENE 12.7 mph 20.7 mph 0.00 in   Mostly Cloudy
10:53 AM 82.0 °F 83.8 °F 64.9 °F 56% 30.00 in 10.0 mi NE 12.7 mph 20.7 mph N/A   Mostly Cloudy
11:53 AM 82.9 °F 84.4 °F 64.0 °F 53% 29.99 in 10.0 mi ENE 11.5 mph 19.6 mph N/A   Mostly Cloudy
12:53 PM 84.0 °F 85.4 °F 64.0 °F 51% 29.98 in 10.0 mi ENE 15.0 mph 21.9 mph N/A   Mostly Cloudy
1:53 PM 84.0 °F 84.9 °F 63.0 °F 49% 29.97 in 10.0 mi ENE 16.1 mph 23.0 mph N/A   Mostly Cloudy
2:53 PM 84.0 °F 84.9 °F 63.0 °F 49% 29.96 in 10.0 mi ENE 12.7 mph 21.9 mph N/A   Mostly Cloudy
3:53 PM 82.0 °F 83.4 °F 64.0 °F 54% 29.95 in 10.0 mi NE 15.0 mph - N/A   Scattered Clouds
4:53 PM 82.0 °F 83.4 °F 64.0 °F 54% 29.94 in 10.0 mi NE 15.0 mph 24.2 mph N/A   Scattered Clouds
5:53 PM 80.1 °F 81.5 °F 63.0 °F 56% 29.95 in 10.0 mi ENE 15.0 mph - N/A   Scattered Clouds
6:53 PM 78.1 °F - 64.0 °F 62% 29.97 in 10.0 mi ENE 15.0 mph - N/A   Mostly Cloudy
7:53 PM 75.9 °F - 64.0 °F 67% 29.99 in 10.0 mi ENE 11.5 mph 20.7 mph N/A   Scattered Clouds
8:53 PM 75.9 °F - 64.0 °F 67% 29.99 in 10.0 mi NE 12.7 mph - N/A   Scattered Clouds
9:53 PM 75.0 °F - 64.9 °F 71% 30.01 in 10.0 mi Variable 5.8 mph - N/A   Partly Cloudy
10:53 PM 75.9 °F - 64.0 °F 67% 30.01 in 10.0 mi North 3.5 mph - N/A   Partly Cloudy
11:53 PM 75.0 °F - 64.9 °F 71% 30.02 in 10.0 mi ENE 6.9 mph - N/A   Partly Cloudy